Location: *
(60.1759°S, 155.0663°W)
Time: 08:18:16
(UTC+00:00)

ATLAS 2AS CENTAUR R/B - Pass Details

Date: 17 September 2019
Orbit: 919 x 1292 km, 63.6° (Epoch: 21 September)

Event Time Altitude Azimuth Distance (km) Brightness Sun altitude
Exits shadow 13:03:16 37° 262° (W) 1,430 3.0 -23.7°
Maximum altitude 13:05:47 68° 191° (S) 1,028 2.6 -23.5°
Drops below altitude 10° 13:12:11 10° 107° (ESE) 2,767 5.8 -22.9°
Sets 13:14:53 0° 104° (ESE) 3,762 6.6 -22.7°
